This is the latest recevied weather packets stored in our database for station/object EA8DNP-14. If no packets are shown the sender has not sent any weather packets the latest 10 day(s).
| Time | Temp. | Humidity | Pressure | Rain* | Wind** | Luminosity | Snow |
|---|---|---|---|---|---|---|---|
| 1787409039 | 25° C | 43% | 902.8 hPa | - | - | - | - |
| 1787408138 | 25.56° C | 43% | 903 hPa | - | - | - | - |
| 1787407238 | 26.11° C | 42% | 902.9 hPa | - | - | - | - |
| 1787406342 | 26.11° C | 42% | 902.9 hPa | - | - | - | - |
| 1787405441 | 25.56° C | 42% | 902.9 hPa | - | - | - | - |
| 1787405011 | 26.11° C | 42% | 903.1 hPa | - | - | - | - |
| 1787404111 | 25° C | 43% | 903.2 hPa | - | - | - | - |
| 1787403210 | 25.56° C | 43% | 903.3 hPa | - | - | - | - |
| 1787402310 | 24.44° C | 43% | 903.3 hPa | - | - | - | - |
| 1787401410 | 23.89° C | 44% | 903.4 hPa | - | - | - | - |
| 1787400510 | 23.89° C | 43% | 903.5 hPa | - | - | - | - |
| 1787399610 | 25° C | 42% | 903.6 hPa | - | - | - | - |
| 1787398710 | 24.44° C | 43% | 903.6 hPa | - | - | - | - |
| 1787397810 | 24.44° C | 42% | 903.6 hPa | - | - | - | - |
| 1787396910 | 25.56° C | 41% | 903.8 hPa | - | - | - | - |
| 1787396010 | 25.56° C | 42% | 904 hPa | - | - | - | - |
| 1787395112 | 25.56° C | 41% | 903.8 hPa | - | - | - | - |
| 1787394209 | 26.11° C | 40% | 903.7 hPa | - | - | - | - |
| 1787393309 | 26.67° C | 40% | 903.5 hPa | - | - | - | - |
| 1787392409 | 26.67° C | 40% | 903.4 hPa | - | - | - | - |
| 1787391509 | 26.67° C | 40% | 903.4 hPa | - | - | - | - |
| 1787390609 | 25.56° C | 41% | 903.2 hPa | - | - | - | - |
| 1787389709 | 25.56° C | 42% | 903 hPa | - | - | - | - |
| 1787388809 | 25° C | 43% | 903.1 hPa | - | - | - | - |
| 1787387909 | 24.44° C | 45% | 903 hPa | - | - | - | - |
* Rain since midnight (hover to see other rain measurements)
** Current wind speed in m/s (hover to see current wind gust speed)